Weather History for Peru, IN

Change the Weather History Date:

Thursday, February 21, 2013

  Actual Average Record
Temperature  
Mean Temperature 24 °F -  
Max Temperature 27 °F 38 °F 59 °F (1997)
Min Temperature 21 °F 24 °F 0 °F (2008)
Degree Days  
Heating Degree Days 41    
Moisture  
Dew Point 19 °F    
Average Humidity 79    
Maximum Humidity 89    
Minimum Humidity 68    
Precipitation  
Precipitation 0.00 in - - ()
Sea Level Pressure  
Sea Level Pressure 30.21 in    
Wind  
Wind Speed 12 mph (ENE)    
Max Wind Speed 24 mph    
Max Gust Speed 32 mph    
Visibility 8 miles    
Events Snow    
Averages and records for this station are not official NWS values.
T = Trace of Precipitation, MM = Missing Value Source: NWS Daily Summary

Daily Weather History Graph

Daily Weather History Graph

Search for Another Location

Airport:

Trip Planner

Search our weather history database for the weather conditions in past years. The results will help you decide how hot, cold, wet, or windy it might be!

Date:

Astronomy

Feb. 21, 2013 Rise Set
Actual Time 7:29 AM EST 6:27 PM EST
Civil Twilight 7:02 AM EST 6:54 PM EST
Nautical Twilight 6:30 AM EST 7:26 PM EST
Astronomical Twilight 5:58 AM EST 7:58 PM EST
Moon 2:40 PM EST (2/21) 4:34 AM EST (2/21)
Length of Visible Light 11h 52m
Length of Day
10h 57m
Waxing Gibbous, 83% of the Moon is Illuminated
Feb 21
Waxing Gibbous
Feb 25
Full
Mar 4
Last Quarter
Mar 11
New
Mar 19
First Quarter

Hourly Weather History & Observations

Time (EST) Temp. Windchill Dew Point Humidity Pressure Visibility Wind Dir Wind Speed Gust Speed Precip Events Conditions
12:55 AM 21.2 °F 11.7 °F 16.0 °F 80% 30.35 in 10.0 mi NNW 8.1 mph - N/A   Overcast
1:55 AM 21.4 °F 13.8 °F 16.2 °F 80% 30.35 in 10.0 mi North 5.8 mph - N/A   Overcast
2:55 AM 21.9 °F 13.4 °F 16.5 °F 80% 30.35 in 10.0 mi NNE 6.9 mph - N/A   Overcast
3:55 AM 22.3 °F 13.9 °F 16.5 °F 79% 30.35 in 10.0 mi North 6.9 mph - N/A   Overcast
4:55 AM 22.6 °F 16.5 °F 16.9 °F 79% 30.33 in 10.0 mi NE 4.6 mph - N/A   Overcast
4:58 AM 23.0 °F 17.0 °F 17.6 °F 80% 30.33 in 10.0 mi NE 4.6 mph - N/A   Overcast
5:55 AM 23.0 °F 17.0 °F 17.2 °F 79% 30.34 in 10.0 mi NNE 4.6 mph - N/A   Overcast
6:53 AM 24.8 °F 15.3 °F 17.6 °F 74% 30.38 in 10.0 mi North 9.2 mph - N/A   Overcast
6:55 AM 23.9 °F 14.2 °F 17.6 °F 77% 30.38 in 10.0 mi North 9.2 mph - N/A   Overcast
7:55 AM 23.9 °F 14.2 °F 18.7 °F 80% 30.35 in 10.0 mi NNE 9.2 mph - N/A   Overcast
8:55 AM 23.7 °F 14.0 °F 18.3 °F 80% 30.36 in 10.0 mi NE 9.2 mph - N/A   Overcast
9:55 AM 24.1 °F 15.2 °F 18.5 °F 79% 30.36 in 10.0 mi NNE 8.1 mph - N/A   Overcast
10:30 AM 24.8 °F 16.1 °F 17.6 °F 74% 30.36 in 10.0 mi ENE 8.1 mph - N/A   Overcast
10:55 AM 23.9 °F 15.0 °F 17.8 °F 77% 30.37 in 10.0 mi East 8.1 mph - N/A   Overcast
11:55 AM 25.0 °F 14.2 °F 18.1 °F 75% 30.34 in 10.0 mi ENE 11.5 mph - N/A   Overcast
12:55 PM 25.7 °F 15.1 °F 18.3 °F 74% 30.31 in 10.0 mi ENE 11.5 mph - N/A   Overcast
1:55 PM 26.1 °F 14.0 °F 18.0 °F 71% 30.28 in 10.0 mi East 15.0 mph - N/A   Overcast
2:55 PM 27.5 °F 15.9 °F 18.3 °F 68% 30.22 in 10.0 mi East 15.0 mph - N/A   Mostly Cloudy
3:29 PM 26.6 °F 13.4 °F 17.6 °F 69% 30.21 in 10.0 mi East 18.4 mph 25.3 mph N/A   Mostly Cloudy
3:55 PM 26.8 °F 15.4 °F 18.3 °F 70% 30.25 in 10.0 mi East 13.8 mph 21.9 mph N/A   Mostly Cloudy
3:58 PM 26.6 °F 16.8 °F 17.6 °F 69% 30.25 in 10.0 mi East 10.4 mph 21.9 mph N/A   Mostly Cloudy
4:55 PM 26.6 °F 16.2 °F 18.9 °F 73% 30.26 in 10.0 mi East 11.5 mph - N/A   Overcast
5:55 PM 26.6 °F 13.4 °F 19.4 °F 74% 30.16 in 10.0 mi East 18.4 mph - N/A   Overcast
6:55 PM 26.4 °F 16.0 °F 19.2 °F 74% 30.21 in 10.0 mi East 11.5 mph - N/A   Overcast
7:55 PM 26.1 °F 12.7 °F 19.8 °F 77% 30.19 in 10.0 mi East 18.4 mph 24.2 mph N/A   Overcast
8:55 PM 25.9 °F 12.1 °F 19.6 °F 77% 30.15 in 10.0 mi East 19.6 mph 25.3 mph N/A   Overcast
9:23 PM 26.6 °F 14.3 °F 19.4 °F 74% 30.17 in 10.0 mi East 16.1 mph - N/A   Overcast
9:25 PM 26.6 °F 13.4 °F 19.4 °F 74% 30.17 in 10.0 mi East 18.4 mph 24.2 mph N/A Snow Light Snow
9:31 PM 26.6 °F 14.7 °F 19.4 °F 74% 30.17 in 10.0 mi East 15.0 mph 24.2 mph N/A Snow Light Snow
9:44 PM 26.6 °F 12.7 °F 19.4 °F 74% 30.15 in 5.0 mi East 20.7 mph 26.5 mph N/A Snow Light Snow
9:45 PM 26.6 °F 12.7 °F 19.4 °F 74% 30.15 in 4.0 mi East 20.7 mph 26.5 mph N/A Snow Light Snow
9:49 PM 24.8 °F 10.3 °F 21.2 °F 86% 30.14 in 2.5 mi East 20.7 mph 28.8 mph N/A Snow Light Snow
9:55 PM 25.2 °F 11.2 °F 21.4 °F 86% 30.14 in 2.0 mi East 19.6 mph 28.8 mph 0.00 in Snow Light Snow
9:59 PM 24.8 °F 10.7 °F 21.2 °F 86% 30.13 in 2.5 mi East 19.6 mph 28.8 mph N/A Snow Light Snow
10:01 PM 24.8 °F 10.7 °F 21.2 °F 86% 30.13 in 3.0 mi East 19.6 mph 26.5 mph N/A Snow Light Snow
10:05 PM 24.8 °F 10.7 °F 21.2 °F 86% 30.13 in 5.0 mi East 19.6 mph 26.5 mph N/A Snow Light Snow
10:14 PM 24.8 °F 11.1 °F 21.2 °F 86% 30.12 in 4.0 mi East 18.4 mph 24.2 mph N/A Snow Light Snow
10:18 PM 24.8 °F 9.3 °F 21.2 °F 86% 30.11 in 4.0 mi East 24.2 mph - N/A Snow Light Snow
10:32 PM 24.8 °F 9.6 °F 21.2 °F 86% 30.09 in 5.0 mi East 23.0 mph 29.9 mph N/A Snow Light Snow
10:55 PM 24.8 °F 9.6 °F 21.6 °F 87% 30.07 in 9.0 mi East 23.0 mph 28.8 mph 0.00 in   Mostly Cloudy
10:59 PM 24.8 °F 10.3 °F 21.2 °F 86% 30.07 in 8.0 mi East 20.7 mph 28.8 mph N/A   Mostly Cloudy
11:11 PM 24.8 °F 9.3 °F 21.2 °F 86% 30.06 in 6.0 mi East 24.2 mph 32.2 mph N/A Snow Blowing Snow
11:41 PM 24.8 °F 10.3 °F 21.2 °F 86% 30.05 in 4.0 mi East 20.7 mph 28.8 mph N/A Snow Light Snow
11:44 PM 24.8 °F 9.6 °F 21.2 °F 86% 30.05 in 4.0 mi East 23.0 mph 32.2 mph N/A Snow Light Snow
11:48 PM 24.8 °F 9.3 °F 21.2 °F 86% 30.04 in 4.0 mi East 24.2 mph 32.2 mph N/A Snow Light Snow
11:50 PM 24.8 °F 9.3 °F 21.2 °F 86% 30.04 in 3.0 mi East 24.2 mph 32.2 mph N/A   Overcast
11:55 PM 24.6 °F 9.7 °F 21.9 °F 89% 30.04 in 3.0 mi East 21.9 mph 31.1 mph 0.00 in Snow Light Snow